Date String (YYYY-MM-DD hh:mm:ss) UTC,Instrument flags,absolute air pressure of the measurement (hPa),sample flow rate (lpm),inlet stack bypass flow (lpm),air temperature of the measurement (°C),ambient temperature measured by the external sensor (°C),aerosol sample conditioner tube jacket temperature (°C),OPC LED temperature (°C),internal box temperature (°C),relative humidity of the measurement (%),span deviation,mass concentration of particles derived from Lorenz-Mie calculation of OPC scattering (μg/m³),mass concentration of particles derived from Lorenz-Mie calculation of OPC scattering (μg/m³),mass concentration of particles derived from Lorenz-Mie calculation of OPC scattering (μg/m³)
DateTimeUTC,F1_M11,P_M11,Q1_M11,Q2_M11,T1_M11,T2_M11,T3_M11,T4_M11,T5_M11,U1_M11,ZSPAN_M11,X2_M11,X0_M11,X1_M11
2023-11-18 02:00:00,SystemResetWarning,0832.3,4.99,000.00,025.9,024.9,000.0,034.2,027.3,17.3,0003.8,0008.19,0016.88,0007.04
2023-11-18 02:01:00,SystemResetWarning,0832.3,5.00,000.00,025.9,024.9,000.0,034.2,027.3,17.4,0003.8,0008.04,0016.67,0006.93
2023-11-18 02:02:00,SystemResetWarning,0832.2,5.01,000.00,025.9,024.9,000.0,034.2,027.3,17.5,0004.0,0007.91,0016.81,0006.79
2023-11-18 02:03:00,SystemResetWarning,0832.3,5.00,000.00,025.9,024.9,000.0,034.2,027.3,17.5,0004.0,0007.66,0016.36,0006.61
2023-11-18 02:04:00,SystemResetWarning,0832.3,5.00,000.00,025.9,024.9,000.0,034.2,027.3,17.4,0003.9,0007.41,0016.01,0006.42
2023-11-18 02:05:00,SystemResetWarning,0832.3,5.00,000.00,025.9,024.9,000.0,034.2,027.3,17.3,0003.7,0007.21,0015.21,0006.23
2023-11-18 02:06:00,SystemResetWarning,0832.3,5.00,000.00,025.9,024.9,000.0,034.2,027.3,17.3,0003.6,0007.07,0014.47,0006.05
2023-11-18 02:07:00,SystemResetWarning,0832.3,5.00,000.00,025.9,024.9,000.0,034.2,027.4,17.3,0003.3,0006.99,0013.61,0005.92
2023-11-18 02:08:00,SystemResetWarning,0832.3,4.99,000.00,025.9,024.9,000.0,034.2,027.4,17.3,0002.7,0006.88,0013.71,0005.83
2023-11-18 02:09:00,SystemResetWarning,0832.3,5.00,000.00,025.9,024.9,000.0,034.3,027.3,17.3,0002.4,0006.76,0013.34,0005.76
2023-11-18 02:10:00,SystemResetWarning,0832.3,4.99,000.00,025.9,024.9,000.0,034.3,027.4,17.3,0002.8,0006.69,0013.38,0005.71
2023-11-18 02:11:00,SystemResetWarning,0832.3,5.01,000.00,025.9,024.9,000.0,034.3,027.3,17.3,0002.8,0006.56,0013.59,0005.65
2023-11-18 02:12:00,SystemResetWarning,0832.3,5.00,000.00,025.9,024.9,000.0,034.3,027.4,17.3,0002.4,0006.52,0014.67,0005.61
2023-11-18 02:13:00,SystemResetWarning,0832.3,5.01,000.00,025.9,024.9,000.0,034.3,027.4,17.3,0001.8,0006.47,0014.27,0005.59
2023-11-18 02:14:00,SystemResetWarning,0832.3,5.01,000.00,026.0,024.9,000.0,034.3,027.4,17.3,0001.9,0006.52,0014.95,0005.60
2023-11-18 02:15:00,SystemResetWarning,0832.3,5.00,000.00,026.0,024.9,000.0,034.3,027.4,17.3,0002.0,0006.55,0015.13,0005.61
2023-11-18 02:16:00,SystemResetWarning,0832.3,5.00,000.00,026.0,024.9,000.0,034.3,027.4,17.4,0002.1,0006.60,0015.12,0005.63
2023-11-18 02:17:00,SystemResetWarning,0832.3,5.00,000.00,026.0,024.9,000.0,034.3,027.4,17.4,0002.1,0006.59,0015.34,0005.64
2023-11-18 02:18:00,SystemResetWarning,0832.3,4.99,000.00,026.0,024.9,000.0,034.3,027.4,17.5,0002.7,0006.56,0014.98,0005.63
2023-11-18 02:19:00,SystemResetWarning,0832.3,5.00,000.00,026.0,024.9,000.0,034.3,027.4,17.6,0003.8,0006.58,0015.41,0005.63
2023-11-18 02:20:00,SystemResetWarning,0832.3,5.01,000.00,026.0,024.9,000.0,034.3,027.4,17.6,0004.1,0006.60,0015.28,0005.63
2023-11-18 02:21:00,SystemResetWarning,0832.3,5.01,000.00,026.0,025.0,000.0,034.3,027.4,17.7,0004.2,0006.62,0015.02,0005.61
2023-11-18 02:22:00,SystemResetWarning,0832.3,5.00,000.00,026.0,025.0,000.0,034.3,027.4,17.7,0004.1,0006.60,0014.92,0005.60
2023-11-18 02:23:00,SystemResetWarning,0832.3,4.98,000.00,026.0,023.4,000.0,034.3,027.3,17.7,0004.3,0006.60,0014.68,0005.59
2023-11-18 02:24:00,SystemResetWarning,0832.2,5.01,000.00,025.8,021.8,000.0,034.2,026.9,17.8,0004.2,0006.63,0014.97,0005.59
2023-11-18 02:25:00,SystemResetWarning,0832.3,5.01,000.00,025.7,021.6,000.0,034.1,026.5,17.8,0004.0,0006.62,0014.54,0005.59
2023-11-18 02:26:00,SystemResetWarning,0832.2,5.00,000.00,025.5,021.9,000.0,034.1,026.3,17.9,0004.1,0006.64,0014.91,0005.58
2023-11-18 02:27:00,SystemResetWarning,0832.2,5.00,000.00,025.4,022.4,000.0,034.0,026.3,18.0,0004.2,0006.58,0015.30,0005.56
2023-11-18 02:28:00,SystemResetWarning,0832.2,5.01,000.00,025.4,022.8,000.0,034.0,026.4,18.0,0004.3,0006.58,0014.94,0005.56
2023-11-18 02:29:00,SystemResetWarning,0832.2,5.01,000.00,025.3,023.1,000.0,033.9,026.5,18.0,0004.3,0006.59,0014.79,0005.55
2023-11-18 02:30:00,SystemResetWarning,0832.2,5.00,000.00,025.3,023.3,000.0,033.9,026.6,18.1,0003.9,0006.60,0014.12,0005.54
2023-11-18 02:31:00,SystemResetWarning,0832.2,5.00,000.00,025.3,023.5,000.0,033.8,026.6,18.2,0003.9,0006.58,0014.68,0005.51
2023-11-18 02:32:00,SystemResetWarning,0832.2,5.00,000.00,025.3,023.7,000.0,033.8,026.6,18.3,0003.7,0006.57,0015.49,0005.50
2023-11-18 02:33:00,SystemResetWarning,0832.2,5.00,000.00,025.3,023.8,000.0,033.8,026.7,18.4,0004.0,0006.55,0015.24,0005.49
2023-11-18 02:34:00,SystemResetWarning,0832.2,5.00,000.00,025.3,023.9,000.0,033.8,026.7,18.4,0004.0,0006.51,0014.68,0005.47
2023-11-18 02:35:00,SystemResetWarning,0832.2,5.00,000.00,025.3,024.0,000.0,033.8,026.7,18.5,0004.3,0006.48,0014.74,0005.44
2023-11-18 02:36:00,SystemResetWarning,0832.2,5.00,000.00,025.3,024.1,000.0,033.8,026.8,18.5,0004.6,0006.44,0014.65,0005.40
2023-11-18 02:37:00,SystemResetWarning,0832.2,5.00,000.00,025.3,024.1,000.0,033.8,026.7,18.6,0004.6,0006.39,0014.17,0005.36
2023-11-18 02:38:00,SystemResetWarning,0832.2,5.00,000.00,025.4,024.2,000.0,033.7,026.8,18.6,0004.8,0006.45,0013.70,0005.35
2023-11-18 02:39:00,SystemResetWarning,0832.2,4.99,000.00,025.4,024.2,000.0,033.7,026.8,18.5,0004.8,0006.45,0013.86,0005.33
2023-11-18 02:40:00,SystemResetWarning,0832.2,5.00,000.00,025.4,024.2,000.0,033.7,026.8,18.4,0004.9,0006.40,0014.07,0005.31
2023-11-18 02:41:00,SystemResetWarning,0832.2,5.00,000.00,025.4,024.3,000.0,033.7,026.8,18.1,0005.2,0006.36,0014.42,0005.30
2023-11-18 02:42:00,SystemResetWarning,0832.2,5.00,000.00,025.4,024.3,000.0,033.7,026.9,18.2,0005.3,0006.37,0015.43,0005.30
2023-11-18 02:43:00,SystemResetWarning,0832.2,5.00,000.00,025.4,024.3,000.0,033.8,026.9,18.1,0005.6,0006.33,0014.73,0005.29
2023-11-18 02:44:00,SystemResetWarning,0832.2,5.01,000.00,025.4,024.3,000.0,033.7,026.9,17.9,0005.8,0006.32,0014.53,0005.28
2023-11-18 02:45:00,SystemResetWarning,0832.2,5.00,000.00,025.4,024.3,000.0,033.8,026.9,17.9,0005.8,0006.35,0014.51,0005.28
2023-11-18 02:46:00,SystemResetWarning,0832.2,5.00,000.00,025.4,024.4,000.0,033.8,026.9,17.9,0005.7,0006.33,0013.88,0005.27
2023-11-18 02:47:00,SystemResetWarning,0832.2,5.00,000.00,025.5,024.4,000.0,033.8,026.9,18.1,0005.5,0006.28,0013.58,0005.25
2023-11-18 02:48:00,SystemResetWarning,0832.2,4.99,000.00,025.5,024.4,000.0,033.8,026.9,18.0,0005.3,0006.25,0013.52,0005.25
2023-11-18 02:49:00,SystemResetWarning,0832.2,5.00,000.00,025.5,024.4,000.0,033.8,026.9,18.0,0004.9,0006.15,0013.24,0005.22
2023-11-18 02:50:00,SystemResetWarning,0832.3,5.00,000.00,025.5,024.4,000.0,033.8,026.9,18.1,0004.9,0006.08,0012.74,0005.20
2023-11-18 02:51:00,SystemResetWarning,0832.2,5.00,000.00,025.5,024.4,000.0,033.8,026.9,18.2,0004.8,0006.08,0012.93,0005.19
2023-11-18 02:52:00,SystemResetWarning,0832.2,5.01,000.00,025.5,024.4,000.0,033.8,026.8,18.2,0004.7,0006.05,0012.78,0005.17
2023-11-18 02:53:00,SystemResetWarning,0832.2,5.01,000.00,025.5,024.4,000.0,033.8,026.8,18.2,0004.6,0006.03,0011.98,0005.17
2023-11-18 02:54:00,SystemResetWarning,0832.2,4.99,000.00,025.5,024.4,000.0,033.8,026.9,18.3,0004.0,0005.99,0012.12,0005.15
2023-11-18 02:55:00,SystemResetWarning,0832.2,4.99,000.00,025.5,024.4,000.0,033.8,026.9,18.3,0003.5,0005.99,0012.46,0005.13
2023-11-18 02:56:00,SystemResetWarning,0832.2,4.99,000.00,025.5,024.4,000.0,033.8,026.9,18.3,0003.4,0005.96,0012.60,0005.12
2023-11-18 02:57:00,SystemResetWarning,0832.2,4.99,000.00,025.5,024.4,000.0,033.8,026.9,18.3,0003.9,0006.01,0012.91,0005.15
2023-11-18 02:58:00,SystemResetWarning,0832.2,5.00,000.00,025.5,024.4,000.0,033.8,026.9,18.2,0004.1,0006.08,0013.48,0005.18
2023-11-18 02:59:00,SystemResetWarning,0832.2,5.01,000.00,025.5,024.4,000.0,033.8,026.9,18.2,0004.4,0006.08,0013.90,0005.17
